Regional Weather Roundup
Issued by NWS

Home | Current Version | Previous Version | Text Only | Print | Product List | Glossary On
Versions: 1 2 3 4 5 6 7 8 9 10 11 12 13 14 15 16 17 18 19 20 21 22 23 24 25 26 27 28 29 30 31 32 33 34 35 36 37 38 39 40 41 42 43 44 45 46 47 48 49 50
000
ASUS45 KABQ 312210
RWRNM
NEW MEXICO REGIONAL WEATHER ROUNDUP
NATIONAL WEATHER SERVICE ALBUQUERQUE NM
400 PM MDT MON AUG 31 2015

NOTE: "FAIR" MEANS FEW OR NO CLOUDS BELOW 12,000 FEET AGL WITH NO
       SIGNIFICANT WEATHER OR OBSTRUCTIONS TO VISION.

      THIS PRODUCT IS RELEASED AS TWO VERSIONS.  ONE VERSION NEAR
      THE TOP OF THE HOUR CONTAINING PRELIMINARY DATA FROM ALBUQUERQUE
      AND OTHER STATIONS.  A FINAL VERSION WITH ADDITIONAL DATA IS
      ISSUED ABOUT 10 MINUTES AFTER THE HOUR.

NMZ501-503-504-510>518-312300-
NORTHWEST PLATEAU/NORTHCENTRAL MOUNTAINS

CITY           SKY/WX    TMP DP  RH WIND       PRES   REMARKS
FARMINGTON     SUNNY     85  43  22 W14G20    30.12F
LOS ALAMOS     MOSUNNY   77  48  35 S3        30.23F
SANTA FE       MOSUNNY   85  41  21 VRB5      30.15F
TAOS           CLOUDY    84  39  20 SW16G23   30.21F
ANGEL FIRE     MOCLDY    73  43  34 SW14G21   30.31S

$$
NMZ402-403-502-505>509-312300-
WESTCENTRAL MOUNTAINS/SOUTHWEST MOUNTAINS

CITY           SKY/WX    TMP DP  RH WIND       PRES   REMARKS
GALLUP         CLOUDY    81  47  30 N5        30.20F
GRANTS         PTSUNNY   78  47  33 W12       30.22F
SILVER CITY      N/A     82  50  32 W10       30.14F

$$
NMZ407-409-411-412-312300-
SOUTHERN DESERTS

CITY           SKY/WX    TMP DP  RH WIND       PRES   REMARKS
DEMING         SUNNY     93  38  14 CALM      30.02F
LAS CRUCES     MOSUNNY   94  38  14 NW3       30.04F
HOLLOMAN AFB   MOSUNNY   95  38  13 SW5       29.99F
ALAMOGORDO     MOSUNNY   93  41  16 N3        30.01F
T OR C         PTSUNNY   85  48  27 NW15G24   30.08F

$$
NMZ519>523-312300-
CENTRAL VALLEYS/CENTRAL HIGHLANDS

CITY           SKY/WX    TMP DP  RH WIND       PRES   REMARKS
ALBUQUERQUE    PTSUNNY   89  44  20 W8        30.09F
DOUBLE EAGLE   PTSUNNY   88  46  23 W8        30.14F
MORIARTY ARPT  FAIR      88  37  16 W9        30.16F
CLINES CORNERS MOSUNNY   80  43  26 W9        30.20F
BELEN          FAIR      91  42  18 SW7       30.09F
SOCORRO        FAIR      84  38  19 W12G21    30.08F

$$
NMZ524>526-539-540-312300-
SOUTHCENTRAL MOUNTAINS

CITY           SKY/WX    TMP DP  RH WIND       PRES   REMARKS
RUIDOSO        PTSUNNY   72  52  49 MISG      30.24F

$$
NMZ527>531-312300-
NORTHEAST HIGHLANDS/NORTHEAST PLAINS

CITY           SKY/WX    TMP DP  RH WIND       PRES   REMARKS
LAS VEGAS      MOSUNNY   84  42  22 N6        30.18F
RATON          CLOUDY    79  47  32 N10       30.12F
CLAYTON        PTSUNNY   88  54  31 S13       30.02F

$$
NMZ532>537-312300-
EASTCENTRAL PLAINS

CITY           SKY/WX    TMP DP  RH WIND       PRES   REMARKS
TUCUMCARI      SUNNY     97  47  18 S8        29.94F
CANNON AFB     SUNNY     94  49  21 SW13      30.01F
CLOVIS AIRPORT SUNNY     91  50  24 S18G28    30.03F

$$
NMZ028-029-538-312300-
SOUTHEAST PLAINS

CITY           SKY/WX    TMP DP  RH WIND       PRES   REMARKS
ROSWELL        SUNNY     97  48  18 SE15G23   29.97F
ARTESIA        SUNNY     95  50  21 SE10G16   29.97F
CARLSBAD       NOT AVBL
HOBBS          SUNNY     90  43  19 SE10      30.03F


$$


USA.gov is the U.S. government's official web portal to all federal, state and local government web resources and services.